Location: Aalen
(48.8330°N, 10.1000°E)
Time: 07:37:25
(UTC+02:00)

Transit 2A - Pass Details

Date: 02 August 2021
Orbit: 594 x 964 km, 66.7° (Epoch: 24 September)

Event Time Altitude Azimuth Distance (km) Brightness Sun altitude
Rises 06:39:30 0° 182° (S) 2,829 8.7 5.9°
Reaches altitude 10° 06:41:55 10° 171° (S) 1,950 8.0 6.3°
Maximum altitude 06:45:37 28° 112° (ESE) 1,186 7.8 6.8°
Drops below altitude 10° 06:49:34 10° 54° (NE) 2,077 10.1 7.5°
Sets 06:52:13 0° 43° (NE) 3,052 10.3 7.9°
